New Baltimore, MI

1:01 PM EST on December 03, 2016 (GMT -0500)
Selfridge Angb

Weather History for KMTC - May, 2013

Change the Weather History Date:

Tuesday, May 21, 2013

  Actual Average Record
Temperature  
Mean Temperature 74 °F -  
Max Temperature 85 °F 69 °F 87 °F (1977)
Min Temperature 64 °F 47 °F 28 °F (2002)
Cooling Degree Days 10    
Growing Degree Days 24 (Base 50)    
Moisture  
Dew Point 63 °F    
Average Humidity 77    
Maximum Humidity 100    
Minimum Humidity 42    
Precipitation  
Precipitation 0.00 in - - ()
Sea Level Pressure  
Sea Level Pressure 29.79 in    
Wind  
Wind Speed 4 mph (SSW)    
Max Wind Speed 18 mph    
Max Gust Speed 25 mph    
Visibility 9 miles    
Events Rain    
Averages and records for this station are not official NWS values.
T = Trace of Precipitation, MM = Missing Value Source: NWS Daily Summary

Daily Weather History Graph

Daily Weather History Graph

Search for Another Location

Airport or City:

Trip Planner

Search our weather history database for the weather conditions in past years. The results will help you decide how hot, cold, wet, or windy it might be!

Date:

Astronomy

May. 21, 2013 Rise Set
Actual Time 6:03 AM EDT 8:53 PM EDT
Civil Twilight 5:30 AM EDT 9:26 PM EDT
Nautical Twilight 4:48 AM EDT 10:08 PM EDT
Astronomical Twilight 4:00 AM EDT 10:56 PM EDT
Moon 5:01 PM EDT (5/21) 3:35 AM EDT (5/21)
Length of Visible Light 15h 55m
Length of Day
14h 49m
Waxing Gibbous, 84% of the Moon is Illuminated
May 21
Waxing Gibbous
May 25
Full
May 31
Last Quarter
Jun 8
New
Jun 16
First Quarter

Hourly Weather History & Observations

Time (EDT) Temp. Heat Index Dew Point Humidity Pressure Visibility Wind Dir Wind Speed Gust Speed Precip Events Conditions
12:58 AM 67.1 °F - 64.6 °F 92% 29.83 in 10.0 mi Calm Calm - N/A   Clear
1:18 AM 66.2 °F - 64.4 °F 94% 29.83 in 9.0 mi Calm Calm - N/A   Clear
1:38 AM 66.2 °F - 64.4 °F 94% 29.82 in 10.0 mi Calm Calm - N/A   Clear
1:48 AM 64.4 °F - 64.4 °F 100% 29.82 in 9.0 mi Calm Calm - N/A   Clear
1:53 AM 64.4 °F - 64.4 °F 100% 29.82 in 10.0 mi East 1.2 mph - N/A   Clear
1:58 AM 64.4 °F - 63.9 °F 98% 29.82 in 10.0 mi SE 2.3 mph - N/A   Clear
2:13 AM 64.4 °F - 64.4 °F 100% 29.82 in 9.0 mi Calm Calm - N/A   Clear
2:28 AM 64.4 °F - 64.4 °F 100% 29.82 in 10.0 mi Calm Calm - N/A   Clear
2:43 AM 64.4 °F - 64.4 °F 100% 29.81 in 9.0 mi Calm Calm - N/A   Clear
2:58 AM 64.4 °F - 64.0 °F 99% 29.81 in 10.0 mi Calm Calm - N/A   Clear
3:58 AM 65.5 °F - 64.6 °F 97% 29.80 in 10.0 mi South 5.8 mph - N/A   Clear
4:58 AM 66.4 °F - 66.0 °F 99% 29.80 in 10.0 mi SSE 6.9 mph - N/A   Clear
5:13 AM 66.2 °F - 66.2 °F 100% 29.80 in 10.0 mi South 5.8 mph - N/A   Partly Cloudy
5:41 AM 66.2 °F - 66.2 °F 100% 29.81 in 9.0 mi South 5.8 mph - N/A Rain Light Rain
5:55 AM 66.4 °F - 66.2 °F 99% 29.82 in 7.0 mi South 6.9 mph - N/A   Overcast
6:55 AM 67.3 °F - 66.4 °F 97% 29.82 in 7.0 mi South 5.8 mph - N/A   Overcast
7:55 AM 68.5 °F - 67.1 °F 95% 29.81 in 7.0 mi SSE 8.1 mph - N/A   Mostly Cloudy
8:55 AM 72.7 °F - 67.6 °F 84% 29.78 in 6.0 mi SSE 10.4 mph - N/A   Haze
9:55 AM 75.4 °F - 68.0 °F 78% 29.81 in 7.0 mi South 13.8 mph - N/A   Mostly Cloudy
10:55 AM 80.1 °F 82.7 °F 68.4 °F 67% 29.81 in 7.0 mi SSW 11.5 mph - N/A   Mostly Cloudy
11:55 AM 84.0 °F 84.9 °F 63.0 °F 49% 29.80 in 7.0 mi SW 10.4 mph - N/A   Scattered Clouds
12:55 PM 85.1 °F 84.8 °F 59.4 °F 42% 29.77 in 10.0 mi WSW 17.3 mph - N/A   Mostly Cloudy
1:55 PM 83.1 °F 83.2 °F 59.9 °F 45% 29.77 in 10.0 mi WSW 15.0 mph 21.9 mph N/A   Mostly Cloudy
2:55 PM 80.6 °F 80.9 °F 57.9 °F 46% 29.77 in 10.0 mi SW 18.4 mph 25.3 mph N/A   Overcast
3:55 PM 81.7 °F 82.0 °F 59.9 °F 47% 29.76 in 10.0 mi WSW 13.8 mph 19.6 mph N/A   Mostly Cloudy
4:55 PM 84.4 °F 84.0 °F 59.0 °F 42% 29.75 in 10.0 mi WSW 13.8 mph 19.6 mph N/A   Mostly Cloudy
5:55 PM 83.7 °F 83.4 °F 59.0 °F 43% 29.74 in 10.0 mi SW 10.4 mph 19.6 mph N/A   Mostly Cloudy
6:55 PM 83.1 °F 83.0 °F 59.4 °F 44% 29.73 in 10.0 mi WSW 8.1 mph - N/A   Mostly Cloudy
7:58 PM 81.7 °F 82.0 °F 59.5 °F 47% 29.73 in 10.0 mi WSW 8.1 mph - N/A   Clear
8:58 PM 80.2 °F 80.8 °F 59.2 °F 48% 29.73 in 10.0 mi WNW 3.5 mph - N/A   Clear
9:58 PM 72.7 °F - 60.3 °F 65% 29.73 in 10.0 mi SSE 2.3 mph - N/A   Clear
10:58 PM 71.8 °F - 61.3 °F 70% 29.75 in 10.0 mi SSE 6.9 mph - N/A   Overcast
11:58 PM 71.8 °F - 63.3 °F 75% 29.75 in 10.0 mi South 10.4 mph 23.0 mph N/A   Mostly Cloudy